TURKSAT 5B

Last updated on Mon Oct 14 2024 00:02:41 GMT+0000 (Coordinated Universal Time)

1 50212U 21126A 24287.27896656 .00000144 00000+0 00000+0 0 9991 2 50212 0.0732 345.9483 0002472 310.3368 228.5049 1.00271935 10165
UTC large
Height (km)
Speed (km/s)
/
Latitude / Longitude
Inclination (degrees)
Orbital Period (minutes)
Azimuth
Elevation
Range (km)
Doppler Factor

Next 0 passes for location: London (51.5072 / 0.1276)

Sorry there are no passes over London.